This is the latest recevied weather packets stored in our database for station/object K7TSD. If no packets are shown the sender has not sent any weather packets the latest 10 day(s).
| Time | Temp. | Humidity | Pressure | Rain* | Wind** | Luminosity | Snow |
|---|---|---|---|---|---|---|---|
| 1778308300 | 13.33° C | 55% | 1009.4 hPa | 0 mm | - | 0 W/m² | - |
| 1778307997 | 13.33° C | 56% | 1009.3 hPa | 0 mm | - | 0 W/m² | - |
| 1778307694 | 13.33° C | 57% | 1009.1 hPa | 0 mm | - | 0 W/m² | - |
| 1778307391 | 12.78° C | 57% | 1009.2 hPa | 0 mm | - | 0 W/m² | - |
| 1778307089 | 12.78° C | 57% | 1009.3 hPa | 0 mm | - | 0 W/m² | - |
| 1778306786 | 12.78° C | 58% | 1009.2 hPa | 0 mm | - | 0 W/m² | - |
| 1778306482 | 13.33° C | 56% | 1009.3 hPa | 0 mm | - | 0 W/m² | - |
| 1778306178 | 12.78° C | 58% | 1009.1 hPa | 0 mm | - | 0 W/m² | - |
| 1778305874 | 13.33° C | 57% | 1009.2 hPa | 0 mm | - | 0 W/m² | - |
| 1778305571 | 12.78° C | 59% | 1009.3 hPa | 0 mm | - | 0 W/m² | - |
| 1778305268 | 12.78° C | 59% | 1009.3 hPa | 0 mm | - | 0 W/m² | - |
| 1778304967 | 12.78° C | 58% | 1009.2 hPa | 0 mm | - | 0 W/m² | - |
| 1778304663 | 12.78° C | 58% | 1009.1 hPa | 0 mm | - | 0 W/m² | - |
| 1778304362 | 12.78° C | 58% | 1009.2 hPa | 0 mm | - | 0 W/m² | - |
| 1778304059 | 12.78° C | 59% | 1009.2 hPa | 0 mm | - | 0 W/m² | - |
| 1778303756 | 13.33° C | 56% | 1009.1 hPa | 0 mm | - | 0 W/m² | - |
| 1778303453 | 13.33° C | 58% | 1008.9 hPa | 0 mm | - | 0 W/m² | - |
| 1778303150 | 12.78° C | 58% | 1009.2 hPa | 0 mm | - | 0 W/m² | - |
| 1778302846 | 12.78° C | 60% | 1009.1 hPa | 0 mm | - | 0 W/m² | - |
| 1778302544 | 12.78° C | 61% | 1009.1 hPa | 0 mm | - | 0 W/m² | - |
| 1778302241 | 12.78° C | 60% | 1009.1 hPa | 0 mm | - | 0 W/m² | - |
| 1778301938 | 13.33° C | 59% | 1009.2 hPa | 0 mm | - | 0 W/m² | - |
| 1778301635 | 12.78° C | 62% | 1009.4 hPa | 0 mm | - | 0 W/m² | - |
| 1778301332 | 12.78° C | 62% | 1009.2 hPa | 0 mm | - | 0 W/m² | - |
| 1778301027 | 11.67° C | 63% | 1009.4 hPa | 0 mm | - | 0 W/m² | - |
* Rain latest hour (hover to see other rain measurements)
** Current wind speed in m/s (hover to see current wind gust speed)